Meteo pe oră la Bolshoe Churaevo

Astăzi, 18 Mai, Marţi

Timp Temperatura Precipitaţii Vânt Presiune Umiditate
00:00 +19°C° 0 mm 1 m/s 743 mmHg 62%
01:00 +19°C° 0 mm 1 m/s 743 mmHg 62%
02:00 +19°C° 0 mm 1 m/s 743 mmHg 63%
03:00 +18°C° 0 mm 1 m/s 743 mmHg 63%
04:00 +18°C° 0 mm 1 m/s 743 mmHg 63%
05:00 +20°C° 0 mm 1 m/s 743 mmHg 60%
06:00 +21°C° 0 mm 1 m/s 743 mmHg 56%
07:00 +23°C° 0 mm 1 m/s 743 mmHg 53%
08:00 +25°C° 0 mm 1 m/s 743 mmHg 48%
09:00 +27°C° 0 mm 1 m/s 742 mmHg 43%
10:00 +29°C° 0 mm 1 m/s 742 mmHg 38%
11:00 +29°C° 0 mm 1 m/s 742 mmHg 36%
12:00 +30°C° 0 mm 1 m/s 742 mmHg 33%
13:00 +31°C° 0 mm 1 m/s 741 mmHg 31%
14:00 +31°C° 0 mm 2 m/s 741 mmHg 33%
15:00 +30°C° 0 mm 3 m/s 741 mmHg 35%
16:00 +30°C° 0 mm 4 m/s 741 mmHg 38%
17:00 +28°C° 0 mm 3 m/s 741 mmHg 43%
18:00 +26°C° 0 mm 3 m/s 740 mmHg 49%
19:00 +25°C° 0 mm 2 m/s 740 mmHg 54%
20:00 +24°C° 0 mm 2 m/s 740 mmHg 55%
21:00 +21°C° 0 mm 2 m/s 740 mmHg 56%
22:00 +20°C° 0 mm 2 m/s 740 mmHg 57%
23:00 +19°C° 0 mm 2 m/s 740 mmHg 59%

Mâine, 19 Mai, Miercuri

Timp Temperatura Precipitaţii Vânt Presiune Umiditate
00:00 +19°C° 0 mm 2 m/s 740 mmHg 62%
01:00 +18°C° 0 mm 2 m/s 739 mmHg 64%
02:00 +18°C° 0 mm 4 m/s 740 mmHg 70%
03:00 +16°C° 0 mm 5 m/s 740 mmHg 75%
04:00 +16°C° 0 mm 7 m/s 740 mmHg 80%
05:00 +16°C° 0 mm 7 m/s 740 mmHg 79%
06:00 +17°C° 0 mm 8 m/s 741 mmHg 78%
07:00 +17°C° 0 mm 9 m/s 741 mmHg 77%
08:00 +18°C° 0 mm 9 m/s 741 mmHg 72%
09:00 +19°C° 0 mm 9 m/s 742 mmHg 68%
10:00 +21°C° 0 mm 9 m/s 742 mmHg 63%
11:00 +22°C° 0 mm 9 m/s 742 mmHg 58%
12:00 +23°C° 0 mm 8 m/s 742 mmHg 53%
13:00 +24°C° 0 mm 8 m/s 742 mmHg 47%
14:00 +24°C° 0 mm 7 m/s 742 mmHg 46%
15:00 +24°C° 0 mm 7 m/s 742 mmHg 45%
16:00 +24°C° 0 mm 7 m/s 742 mmHg 43%
17:00 +23°C° 0 mm 6 m/s 742 mmHg 46%
18:00 +22°C° 0 mm 6 m/s 742 mmHg 48%
19:00 +20°C° 0 mm 5 m/s 743 mmHg 51%
20:00 +19°C° 0 mm 5 m/s 743 mmHg 51%
21:00 +18°C° 0 mm 4 m/s 743 mmHg 52%
22:00 +17°C° 0 mm 4 m/s 744 mmHg 53%
23:00 +15°C° 0 mm 5 m/s 744 mmHg 52%

Poimâine, 20 Mai, Joi

Timp Temperatura Precipitaţii Vânt Presiune Umiditate
00:00 +15°C° 0 mm 5 m/s 744 mmHg 51%
01:00 +15°C° 0 mm 6 m/s 744 mmHg 50%
02:00 +14°C° 0 mm 5 m/s 744 mmHg 53%
03:00 +13°C° 0 mm 5 m/s 745 mmHg 55%
04:00 +12°C° 0 mm 4 m/s 745 mmHg 57%
05:00 +13°C° 0 mm 5 m/s 745 mmHg 58%
06:00 +14°C° 0 mm 5 m/s 745 mmHg 58%
07:00 +15°C° 0 mm 6 m/s 745 mmHg 58%
08:00 +17°C° 0 mm 6 m/s 745 mmHg 53%
09:00 +18°C° 0 mm 7 m/s 745 mmHg 48%
10:00 +21°C° 0 mm 7 m/s 745 mmHg 43%
11:00 +21°C° 0 mm 7 m/s 745 mmHg 41%
12:00 +22°C° 0 mm 7 m/s 745 mmHg 38%
13:00 +23°C° 0 mm 7 m/s 745 mmHg 36%
14:00 +23°C° 0 mm 7 m/s 745 mmHg 36%
15:00 +23°C° 0 mm 7 m/s 745 mmHg 36%
16:00 +23°C° 0 mm 6 m/s 744 mmHg 36%
17:00 +22°C° 0 mm 5 m/s 744 mmHg 42%
18:00 +20°C° 0 mm 4 m/s 744 mmHg 48%
19:00 +19°C° 0 mm 3 m/s 744 mmHg 54%
20:00 +18°C° 0 mm 3 m/s 744 mmHg 54%
21:00 +17°C° 0 mm 3 m/s 744 mmHg 54%
22:00 +16°C° 0 mm 3 m/s 744 mmHg 54%
23:00 +16°C° 0 mm 3 m/s 744 mmHg 55%

21 Mai, Vineri

Timp Temperatura Precipitaţii Vânt Presiune Umiditate
00:00 +14°C° 0 mm 3 m/s 744 mmHg 57%
01:00 +14°C° 0 mm 3 m/s 744 mmHg 58%
02:00 +13°C° 0 mm 3 m/s 744 mmHg 58%
03:00 +13°C° 0 mm 3 m/s 744 mmHg 59%
04:00 +13°C° 0 mm 3 m/s 745 mmHg 60%
05:00 +14°C° 0 mm 4 m/s 745 mmHg 58%
06:00 +15°C° 0 mm 4 m/s 745 mmHg 56%
07:00 +17°C° 0 mm 5 m/s 745 mmHg 54%
08:00 +19°C° 0 mm 5 m/s 745 mmHg 49%
09:00 +21°C° 0 mm 6 m/s 745 mmHg 44%
10:00 +23°C° 0 mm 6 m/s 745 mmHg 39%
11:00 +24°C° 0 mm 6 m/s 745 mmHg 37%
12:00 +26°C° 0 mm 5 m/s 745 mmHg 34%
13:00 +27°C° 0 mm 5 m/s 745 mmHg 32%
14:00 +27°C° 0 mm 4 m/s 745 mmHg 32%
15:00 +27°C° 0 mm 4 m/s 745 mmHg 32%
16:00 +27°C° 0 mm 4 m/s 745 mmHg 32%
17:00 +26°C° 0 mm 3 m/s 745 mmHg 39%
18:00 +24°C° 0 mm 3 m/s 745 mmHg 45%
19:00 +23°C° 0 mm 2 m/s 745 mmHg 52%
20:00 +21°C° 0 mm 2 m/s 745 mmHg 51%
21:00 +19°C° 0 mm 2 m/s 745 mmHg 50%
22:00 +18°C° 0 mm 2 m/s 746 mmHg 49%
23:00 +18°C° 0 mm 2 m/s 746 mmHg 49%

22 Mai, Sâmbătă

Timp Temperatura Precipitaţii Vânt Presiune Umiditate
00:00 +17°C° 0 mm 2 m/s 746 mmHg 48%
01:00 +18°C° 0 mm 1 m/s 746 mmHg 48%
02:00 +16°C° 0 mm 1 m/s 746 mmHg 48%
03:00 +16°C° 0 mm 1 m/s 746 mmHg 47%
04:00 +16°C° 0 mm 1 m/s 747 mmHg 47%
05:00 +18°C° 0 mm 1 m/s 747 mmHg 46%
06:00 +20°C° 0 mm 1 m/s 747 mmHg 45%
07:00 +21°C° 0 mm 1 m/s 747 mmHg 44%
08:00 +23°C° 0 mm 1 m/s 747 mmHg 41%
09:00 +25°C° 0 mm 2 m/s 747 mmHg 37%
10:00 +26°C° 0 mm 2 m/s 747 mmHg 34%
11:00 +27°C° 0 mm 2 m/s 747 mmHg 33%
12:00 +28°C° 0 mm 2 m/s 747 mmHg 32%
13:00 +29°C° 0 mm 2 m/s 747 mmHg 30%
14:00 +29°C° 0 mm 2 m/s 747 mmHg 30%
15:00 +29°C° 0 mm 2 m/s 747 mmHg 30%
16:00 +29°C° 0 mm 1 m/s 747 mmHg 30%
17:00 +28°C° 0 mm 1 m/s 747 mmHg 35%
18:00 +27°C° 0 mm 1 m/s 747 mmHg 40%
19:00 +26°C° 0 mm 1 m/s 747 mmHg 46%
20:00 +24°C° 0 mm 1 m/s 747 mmHg 47%
21:00 +23°C° 0 mm 1 m/s 747 mmHg 47%
22:00 +21°C° 0 mm 1 m/s 747 mmHg 48%
23:00 +21°C° 0 mm 1 m/s 747 mmHg 49%

23 Mai, Duminică

Timp Temperatura Precipitaţii Vânt Presiune Umiditate
00:00 +20°C° 0 mm 1 m/s 747 mmHg 50%
01:00 +20°C° 0 mm 1 m/s 747 mmHg 51%
02:00 +19°C° 0 mm 1 m/s 747 mmHg 51%
03:00 +19°C° 0 mm 1 m/s 747 mmHg 51%
04:00 +19°C° 0 mm 1 m/s 747 mmHg 52%
05:00 +20°C° 0 mm 1 m/s 747 mmHg 50%
06:00 +22°C° 0 mm 1 m/s 747 mmHg 48%
07:00 +24°C° 0 mm 1 m/s 748 mmHg 46%
08:00 +25°C° 0 mm 1 m/s 748 mmHg 42%
09:00 +27°C° 0 mm 2 m/s 748 mmHg 39%
10:00 +29°C° 0 mm 2 m/s 748 mmHg 35%
11:00 +29°C° 0 mm 2 m/s 747 mmHg 33%
12:00 +30°C° 0 mm 2 m/s 747 mmHg 32%
13:00 +31°C° 0 mm 2 m/s 747 mmHg 31%
14:00 +31°C° 0 mm 2 m/s 747 mmHg 31%
15:00 +31°C° 0 mm 1 m/s 747 mmHg 31%
16:00 +31°C° 0 mm 1 m/s 746 mmHg 30%
17:00 +30°C° 0 mm 1 m/s 746 mmHg 36%
18:00 +28°C° 0 mm 1 m/s 746 mmHg 41%
19:00 +27°C° 0 mm 1 m/s 746 mmHg 46%
20:00 +26°C° 0 mm 1 m/s 746 mmHg 46%
21:00 +25°C° 0 mm 1 m/s 746 mmHg 46%
22:00 +24°C° 0 mm 1 m/s 746 mmHg 46%
23:00 +23°C° 0 mm 1 m/s 746 mmHg 47%
Arată mai mult

Formular de consimțământ

Meteoprog și furnizorii noștri de servicii pot stoca și accesa date personale, precum cookies, identificatori de dispozitiv sau alte tehnologii similare pe dispozitivul dumneavoastră și procesa astfel de date pentru a personaliza conținutul și reclamele, dar și pentru a oferi caracteristici de social media și pentru a analiza traficul.

  • Stocarea și/sau accesarea informațiilor pe dispozitivul dumneavoastră

    Cookies, identificatori de dispozitiv sau alte informații pot fi stocate sau accesate pe dispozitiv în scopurile indicate mai sus.

  • Reclame și conținut personalizat, evaluarea reclamelor și a conținutului, informații despre audiențe și dezvoltarea produselor

    Reclamele și conținutul pot fi personalizate pe baza unui profil. Pot fi adăugate date suplimentare pentru a personaliza mai bine reclamele și conținutul. Performanța reclamelor și conținutului poate fi măsurată. Pot fi obținute informații despre utilizatorii care au văzut reclamele și conținutul. Aceste date pot fi utilizate pentru a dezvolta sau îmbunătăți experiența utilizatorilor, sistemele și software-ul.

Dând clic pe ‘Sunt de acord’, permiteți utilizarea cookie-urilor menționate, a identificatorilor de dispozitiv, balizelor web sau altor tehnologii similare. Setările pot fi modificate din browser-ul dispozitivului dumneavoastră.

În anumite scopuri, interesele legitime pot prima asupra consimțământului. Puteți citi mai multe informații în acest sens în Politica privind Confidențialitatea Datelor și Cookie.